Litchfield, IL

10:18 AM CST on November 21, 2017 (GMT -0600)
Litchfield

Weather History for K3LF - April, 2014

Change the Weather History Date:

Sunday, April 6, 2014

  Actual Average (KALN) Record (KALN)
Temperature  
Mean Temperature 44 °F -  
Max Temperature 57 °F 62 °F 82 °F (2001)
Min Temperature 32 °F 43 °F 23 °F (2009)
Degree Days  
Heating Degree Days 20    
Moisture  
Dew Point 34 °F    
Average Humidity 69    
Maximum Humidity 96    
Minimum Humidity 42    
Precipitation  
Precipitation 0.00 in - - ()
Sea Level Pressure  
Sea Level Pressure 30.03 in    
Wind  
Wind Speed 0 mph (East)    
Max Wind Speed 5 mph    
Max Gust Speed -    
Visibility 10 miles    
Events      
Averages and records for this station are not official NWS values.
T = Trace of Precipitation, MM = Missing Value Source: NWS Daily Summary

Daily Weather History Graph

Daily Weather History Graph

Search for Another Location

Airport or City:

Trip Planner

Search our weather history database for the weather conditions in past years. The results will help you decide how hot, cold, wet, or windy it might be!

Date:

Astronomy

Apr. 06, 2014 Rise Set
Actual Time 6:35 AM CDT 7:27 PM CDT
Civil Twilight 6:08 AM CDT 7:54 PM CDT
Nautical Twilight 5:36 AM CDT 8:26 PM CDT
Astronomical Twilight 5:02 AM CDT 9:00 PM CDT
Moon 11:37 AM CDT (4/6) 1:21 AM CDT (4/6)
Length of Visible Light 13h 46m
Length of Day
12h 51m
Waxing Crescent, 44% of the Moon is Illuminated
Apr 6
Waxing Crescent
Apr 7
First Quarter
Apr 15
Full
Apr 22
Last Quarter
Apr 29
New

Hourly Weather History & Observations

Time (CDT) Temp. Dew Point Humidity Pressure Visibility Wind Dir Wind Speed Gust Speed Precip Events Conditions
12:15 AM 36.7 °F 32.7 °F 86% 30.14 in 10.0 mi Calm Calm - N/A   Clear
12:35 AM 36.1 °F 32.2 °F 86% 30.14 in 10.0 mi Calm Calm - N/A   Clear
12:55 AM 37.0 °F 32.4 °F 83% 30.13 in 10.0 mi Calm Calm - N/A   Clear
1:15 AM 37.2 °F 32.4 °F 83% 30.13 in 10.0 mi Calm Calm - N/A   Clear
1:35 AM 37.4 °F 32.5 °F 83% 30.12 in 10.0 mi Calm Calm - N/A   Clear
1:55 AM 37.0 °F 32.4 °F 83% 30.12 in 10.0 mi Calm Calm - N/A   Clear
2:15 AM 36.0 °F 32.2 °F 86% 30.12 in 10.0 mi Calm Calm - N/A   Clear
2:35 AM 35.8 °F 32.0 °F 86% 30.11 in 10.0 mi Calm Calm - N/A   Clear
2:55 AM 33.4 °F 31.8 °F 94% 30.12 in 10.0 mi Calm Calm - N/A   Clear
3:15 AM 34.7 °F 32.0 °F 90% 30.12 in 10.0 mi Calm Calm - N/A   Clear
3:35 AM 35.2 °F 32.0 °F 88% 30.12 in 10.0 mi Calm Calm - N/A   Clear
3:55 AM 34.7 °F 32.0 °F 90% 30.12 in 10.0 mi Calm Calm - N/A   Clear
4:15 AM 34.3 °F 32.2 °F 92% 30.12 in 10.0 mi Calm Calm - N/A   Clear
4:35 AM 32.9 °F 31.5 °F 94% 30.12 in 10.0 mi Calm Calm - N/A   Clear
4:55 AM 33.3 °F 32.0 °F 95% 30.13 in 7.0 mi Calm Calm - N/A   Clear
5:15 AM 33.8 °F 32.0 °F 93% 30.13 in 10.0 mi Calm Calm - N/A   Clear
5:35 AM 33.1 °F 31.5 °F 94% 30.14 in 10.0 mi Calm Calm - N/A   Clear
5:55 AM 33.6 °F 32.0 °F 94% 30.14 in 10.0 mi Calm Calm - N/A   Clear
6:15 AM 32.9 °F 32.0 °F 96% 30.14 in 7.0 mi Calm Calm - N/A   Clear
6:35 AM 32.0 °F 31.1 °F 96% 30.12 in 7.0 mi Calm Calm - N/A   Clear
6:55 AM 33.4 °F 32.0 °F 94% 30.13 in 7.0 mi Calm Calm - N/A   Clear
7:15 AM 34.0 °F 32.2 °F 93% 30.14 in 7.0 mi Calm Calm - N/A   Clear
7:35 AM 34.9 °F 32.9 °F 92% 30.13 in 7.0 mi Calm Calm - N/A   Clear
7:55 AM 36.5 °F 34.2 °F 91% 30.13 in 7.0 mi Calm Calm - N/A   Clear
8:15 AM 37.9 °F 34.7 °F 88% 30.12 in 7.0 mi Calm Calm - N/A   Clear
8:35 AM 39.4 °F 35.1 °F 84% 30.11 in 7.0 mi Calm Calm - N/A   Clear
8:55 AM 41.2 °F 35.8 °F 81% 30.10 in 10.0 mi Calm Calm - N/A   Clear
9:15 AM 42.8 °F 34.7 °F 73% 30.11 in 10.0 mi Calm Calm - N/A   Clear
9:35 AM 43.7 °F 34.3 °F 70% 30.11 in 10.0 mi Calm Calm - N/A   Clear
9:55 AM 45.3 °F 34.7 °F 66% 30.09 in 10.0 mi Calm Calm - N/A   Clear
10:15 AM 45.7 °F 33.8 °F 63% 30.10 in 10.0 mi Calm Calm - N/A   Clear
10:35 AM 48.6 °F 35.4 °F 60% 30.09 in 10.0 mi Calm Calm - N/A   Clear
10:55 AM 48.9 °F 34.9 °F 58% 30.10 in 10.0 mi Calm Calm - N/A   Clear
11:15 AM 50.4 °F 35.4 °F 57% 30.08 in 10.0 mi Calm Calm - N/A   Clear
11:35 AM 50.4 °F 35.2 °F 56% 30.07 in 10.0 mi Calm Calm - N/A   Clear
11:55 AM 51.1 °F 36.3 °F 57% 30.07 in 10.0 mi Calm Calm - N/A   Clear
12:15 PM 51.8 °F 34.3 °F 51% 30.06 in 10.0 mi Calm Calm - N/A   Clear
12:35 PM 51.6 °F 34.9 °F 53% 30.05 in 10.0 mi Calm Calm - N/A   Clear
12:55 PM 52.5 °F 35.4 °F 52% 30.03 in 10.0 mi Calm Calm - N/A   Clear
1:15 PM 53.8 °F 34.7 °F 48% 30.01 in 10.0 mi Calm Calm - N/A   Clear
1:35 PM 54.5 °F 36.5 °F 51% 30.00 in 10.0 mi Calm Calm - N/A   Clear
1:55 PM 55.6 °F 35.4 °F 47% 30.00 in 10.0 mi Calm Calm - N/A   Clear
2:15 PM 55.6 °F 34.0 °F 44% 29.99 in 10.0 mi Calm Calm - N/A   Clear
2:35 PM 56.1 °F 34.3 °F 44% 29.99 in 10.0 mi Calm Calm - N/A   Clear
2:55 PM 56.5 °F 34.7 °F 44% 29.98 in 10.0 mi Calm Calm - N/A   Clear
3:15 PM 56.7 °F 33.8 °F 42% 29.96 in 10.0 mi Calm Calm - N/A   Clear
3:35 PM 56.7 °F 33.4 °F 42% 29.95 in 10.0 mi East 4.6 mph - N/A   Clear
3:55 PM 57.4 °F 35.1 °F 43% 29.94 in 10.0 mi Calm Calm - N/A   Clear
4:15 PM 56.3 °F 33.4 °F 42% 29.96 in 10.0 mi Calm Calm - N/A   Clear
4:35 PM 56.5 °F 34.7 °F 44% 29.96 in 10.0 mi Calm Calm - N/A   Clear
4:55 PM 55.8 °F 34.9 °F 45% 29.95 in 10.0 mi Calm Calm - N/A   Clear
5:15 PM 55.6 °F 34.5 °F 45% 29.94 in 10.0 mi Calm Calm - N/A   Clear
5:35 PM 55.6 °F 35.1 °F 46% 29.92 in 10.0 mi Calm Calm - N/A   Clear
5:55 PM 55.6 °F 35.1 °F 46% 29.91 in 10.0 mi Calm Calm - N/A   Clear
6:15 PM 54.5 °F 35.8 °F 49% 29.91 in 10.0 mi Calm Calm - N/A   Clear
6:35 PM 53.6 °F 36.0 °F 51% 29.92 in 10.0 mi Calm Calm - N/A   Clear
6:55 PM 53.1 °F 36.3 °F 53% 29.92 in 10.0 mi Calm Calm - N/A   Clear
7:15 PM 52.5 °F 36.7 °F 55% 29.93 in 10.0 mi Calm Calm - N/A   Clear
7:35 PM 50.9 °F 37.6 °F 60% 29.93 in 10.0 mi Calm Calm - N/A   Clear
7:55 PM 50.4 °F 35.8 °F 57% 29.93 in 10.0 mi Calm Calm - N/A   Clear
8:15 PM 49.6 °F 35.1 °F 57% 29.93 in 10.0 mi Calm Calm - N/A   Clear
8:35 PM 49.1 °F 35.1 °F 58% 29.92 in 10.0 mi Calm Calm - N/A   Clear
8:55 PM 48.9 °F 34.7 °F 58% 29.92 in 10.0 mi Calm Calm - N/A   Clear
9:15 PM 48.0 °F 34.7 °F 60% 29.92 in 10.0 mi Calm Calm - N/A   Clear
9:35 PM 46.4 °F 35.1 °F 65% 29.92 in 10.0 mi Calm Calm - N/A   Clear
9:55 PM 46.8 °F 35.6 °F 65% 29.92 in 10.0 mi Calm Calm - N/A   Clear
10:15 PM 44.1 °F 35.8 °F 73% 29.91 in 10.0 mi Calm Calm - N/A   Clear
10:35 PM 44.1 °F 36.5 °F 75% 29.91 in 10.0 mi Calm Calm - N/A   Clear
10:55 PM 44.1 °F 36.5 °F 75% 29.91 in 10.0 mi Calm Calm - N/A   Clear
11:15 PM 44.4 °F 36.1 °F 73% 29.90 in 10.0 mi Calm Calm - N/A   Clear
11:35 PM 44.1 °F 36.0 °F 73% 29.88 in 10.0 mi Calm Calm - N/A   Clear
11:55 PM 44.8 °F 36.3 °F 72% 29.87 in 10.0 mi Calm Calm - N/A   Clear